Creston, IA

11:49 PM CDT on August 28, 2016 (GMT -0500)
Creston Municipal

Weather History for KCSQ - December, 2012

Change the Weather History Date:

Monday, December 31, 2012

  Actual Average Record
Temperature  
Mean Temperature 21 °F -  
Max Temperature 30 °F 28 °F 59 °F (2011)
Min Temperature 12 °F 11 °F -17 °F (1976)
Degree Days  
Heating Degree Days 44    
Moisture  
Dew Point 12 °F    
Average Humidity 72    
Maximum Humidity 86    
Minimum Humidity 67    
Precipitation  
Precipitation 0.00 in - - ()
Sea Level Pressure  
Sea Level Pressure 30.14 in    
Wind  
Wind Speed 11 mph (North)    
Max Wind Speed 18 mph    
Max Gust Speed 23 mph    
Visibility 10 miles    
Events      
Averages and records for this station are not official NWS values.
T = Trace of Precipitation, MM = Missing Value Source: NWS Daily Summary

Daily Weather History Graph

Daily Weather History Graph

Search for Another Location

Airport or City:

Trip Planner

Search our weather history database for the weather conditions in past years. The results will help you decide how hot, cold, wet, or windy it might be!

Date:

Astronomy

Dec. 31, 2012 Rise Set
Actual Time 7:42 AM CST 4:59 PM CST
Civil Twilight 7:11 AM CST 5:30 PM CST
Nautical Twilight 6:36 AM CST 6:04 PM CST
Astronomical Twilight 6:03 AM CST 6:38 PM CST
Moon 8:32 PM CST (12/31) 9:22 AM CST (12/31)
Length of Visible Light 10h 18m
Length of Day
9h 16m
Waning Gibbous, 90% of the Moon is Illuminated
Dec 31
Waning Gibbous
Jan 4
Last Quarter
Jan 11
New
Jan 18
First Quarter
Jan 26
Full

Hourly Weather History & Observations

Time (CST) Temp. Windchill Dew Point Humidity Pressure Visibility Wind Dir Wind Speed Gust Speed Precip Events Conditions
12:15 AM 30.2 °F 23.4 °F 21.2 °F 69% 30.06 in 10.0 mi West 6.9 mph - N/A   Clear
12:35 AM 30.2 °F 21.9 °F 21.2 °F 69% 30.05 in 10.0 mi West 9.2 mph - N/A   Scattered Clouds
12:55 AM 28.4 °F 21.2 °F 21.2 °F 74% 30.05 in 10.0 mi West 6.9 mph - N/A   Scattered Clouds
1:15 AM 28.4 °F 19.7 °F 21.2 °F 74% 30.05 in 10.0 mi West 9.2 mph - N/A   Scattered Clouds
1:35 AM 28.4 °F 21.2 °F 21.2 °F 74% 30.08 in 10.0 mi West 6.9 mph - N/A   Overcast
1:55 AM 28.4 °F 19.7 °F 19.4 °F 69% 30.08 in 10.0 mi West 9.2 mph - N/A   Scattered Clouds
2:15 AM 28.4 °F 22.2 °F 19.4 °F 69% 30.10 in 10.0 mi West 5.8 mph - N/A   Clear
2:35 AM 26.6 °F 18.2 °F 19.4 °F 74% 30.10 in 10.0 mi WNW 8.1 mph - N/A   Scattered Clouds
2:55 AM 26.6 °F 16.8 °F 19.4 °F 74% 30.10 in 10.0 mi WNW 10.4 mph - N/A   Mostly Cloudy
3:15 AM 26.6 °F 16.2 °F 19.4 °F 74% 30.10 in 10.0 mi NW 11.5 mph - N/A   Mostly Cloudy
3:35 AM 24.8 °F 14.0 °F 17.6 °F 74% 30.10 in 10.0 mi NNW 11.5 mph - N/A   Mostly Cloudy
3:55 AM 24.8 °F 13.4 °F 17.6 °F 74% 30.11 in 10.0 mi NNW 12.7 mph - N/A   Scattered Clouds
4:15 AM 23.0 °F 13.1 °F 15.8 °F 74% 30.11 in 10.0 mi NNW 9.2 mph - N/A   Mostly Cloudy
4:35 AM 23.0 °F 13.1 °F 15.8 °F 74% 30.10 in 10.0 mi North 9.2 mph - N/A   Overcast
4:55 AM 21.2 °F 10.1 °F 14.0 °F 74% 30.11 in 10.0 mi North 10.4 mph - N/A   Overcast
5:15 AM 21.2 °F 11.7 °F 12.2 °F 68% 30.11 in 10.0 mi North 8.1 mph - N/A   Overcast
5:35 AM 21.2 °F 11.7 °F 12.2 °F 68% 30.11 in 10.0 mi North 8.1 mph - N/A   Overcast
5:55 AM 21.2 °F 10.9 °F 12.2 °F 68% 30.11 in 10.0 mi North 9.2 mph - N/A   Overcast
6:15 AM 21.2 °F 10.1 °F 14.0 °F 74% 30.12 in 10.0 mi NNE 10.4 mph - N/A   Overcast
6:55 AM 19.4 °F 8.6 °F 12.2 °F 74% 30.13 in 10.0 mi North 9.2 mph - N/A   Mostly Cloudy
7:15 AM 19.4 °F 7.9 °F 14.0 °F 80% 30.14 in 10.0 mi NNE 10.4 mph - N/A   Mostly Cloudy
7:35 AM 19.4 °F 7.9 °F 12.2 °F 74% 30.15 in 10.0 mi NNE 10.4 mph - N/A   Overcast
7:55 AM 19.4 °F 6.6 °F 14.0 °F 80% 30.14 in 10.0 mi NNE 12.7 mph - N/A   Overcast
8:15 AM 17.6 °F 2.7 °F 14.0 °F 86% 30.14 in 10.0 mi North 16.1 mph - N/A   Overcast
8:35 AM 17.6 °F 2.2 °F 14.0 °F 86% 30.14 in 10.0 mi North 17.3 mph - N/A   Overcast
8:55 AM 19.4 °F 4.5 °F 14.0 °F 80% 30.15 in 10.0 mi North 17.3 mph 23.0 mph N/A   Scattered Clouds
9:15 AM 19.4 °F 5.5 °F 12.2 °F 74% 30.15 in 10.0 mi NNE 15.0 mph - N/A   Scattered Clouds
9:35 AM 19.4 °F 4.1 °F 12.2 °F 74% 30.16 in 10.0 mi NNE 18.4 mph - N/A   Scattered Clouds
9:55 AM 19.4 °F 5.5 °F 12.2 °F 74% 30.16 in 10.0 mi NNE 15.0 mph - N/A   Scattered Clouds
10:15 AM 19.4 °F 4.5 °F 10.4 °F 68% 30.16 in 10.0 mi North 17.3 mph 23.0 mph N/A   Scattered Clouds
10:35 AM 19.4 °F 6.0 °F 10.4 °F 68% 30.18 in 10.0 mi NNE 13.8 mph 20.7 mph N/A   Scattered Clouds
10:55 AM 19.4 °F 7.2 °F 12.2 °F 74% 30.18 in 10.0 mi NNE 11.5 mph - N/A   Clear
11:15 AM 19.4 °F 5.5 °F 10.4 °F 68% 30.19 in 10.0 mi NNE 15.0 mph - N/A   Clear
11:35 AM 19.4 °F 7.2 °F 12.2 °F 74% 30.18 in 10.0 mi NNE 11.5 mph - N/A   Clear
11:55 AM 19.4 °F 7.2 °F 10.4 °F 68% 30.17 in 10.0 mi NNE 11.5 mph - N/A   Clear
12:15 PM 19.4 °F 6.0 °F 12.2 °F 74% 30.16 in 10.0 mi NNE 13.8 mph 18.4 mph N/A   Clear
12:35 PM 19.4 °F 6.6 °F 10.4 °F 68% 30.17 in 10.0 mi NNE 12.7 mph - N/A   Clear
12:55 PM 19.4 °F 6.6 °F 10.4 °F 68% 30.15 in 10.0 mi NNE 12.7 mph - N/A   Scattered Clouds
1:15 PM 19.4 °F 5.0 °F 10.4 °F 68% 30.14 in 10.0 mi North 16.1 mph - N/A   Clear
1:35 PM 19.4 °F 5.5 °F 10.4 °F 68% 30.13 in 10.0 mi North 15.0 mph - N/A   Scattered Clouds
1:55 PM 19.4 °F 6.0 °F 10.4 °F 68% 30.13 in 10.0 mi North 13.8 mph - N/A   Scattered Clouds
2:15 PM 19.4 °F 6.0 °F 12.2 °F 74% 30.12 in 10.0 mi NNE 13.8 mph - N/A   Scattered Clouds
2:35 PM 19.4 °F 4.5 °F 10.4 °F 68% 30.11 in 10.0 mi North 17.3 mph - N/A   Mostly Cloudy
2:55 PM 19.4 °F 6.0 °F 10.4 °F 68% 30.11 in 10.0 mi NNE 13.8 mph - N/A   Overcast
3:15 PM 19.4 °F 7.2 °F 10.4 °F 68% 30.11 in 10.0 mi North 11.5 mph - N/A   Mostly Cloudy
3:35 PM 19.4 °F 5.0 °F 10.4 °F 68% 30.11 in 10.0 mi North 16.1 mph - N/A   Overcast
3:55 PM 19.4 °F 5.5 °F 10.4 °F 68% 30.13 in 10.0 mi North 15.0 mph - N/A   Mostly Cloudy
4:15 PM 17.6 °F 3.7 °F 10.4 °F 73% 30.13 in 10.0 mi North 13.8 mph - N/A   Overcast
4:35 PM 17.6 °F 3.2 °F 8.6 °F 68% 30.13 in 10.0 mi North 15.0 mph - N/A   Overcast
4:55 PM 17.6 °F 5.7 °F 8.6 °F 68% 30.14 in 10.0 mi North 10.4 mph - N/A   Overcast
5:15 PM 17.6 °F 5.7 °F 8.6 °F 68% 30.14 in 10.0 mi NNE 10.4 mph - N/A   Overcast
5:35 PM 17.6 °F 5.7 °F 8.6 °F 68% 30.15 in 10.0 mi North 10.4 mph - N/A   Overcast
5:55 PM 15.8 °F 3.4 °F 8.6 °F 73% 30.15 in 10.0 mi North 10.4 mph - N/A   Overcast
6:15 PM 15.8 °F 2.1 °F 6.8 °F 68% 30.16 in 10.0 mi North 12.7 mph - N/A   Overcast
6:35 PM 15.8 °F 1.4 °F 6.8 °F 68% 30.16 in 10.0 mi North 13.8 mph 17.3 mph N/A   Overcast
6:55 PM 15.8 °F 4.2 °F 8.6 °F 73% 30.17 in 10.0 mi North 9.2 mph - N/A   Overcast
7:15 PM 15.8 °F 3.4 °F 6.8 °F 68% 30.17 in 10.0 mi North 10.4 mph - N/A   Overcast
7:35 PM 15.8 °F 5.1 °F 8.6 °F 73% 30.18 in 10.0 mi North 8.1 mph - N/A   Overcast
7:55 PM 15.8 °F 3.4 °F 8.6 °F 73% 30.18 in 10.0 mi North 10.4 mph - N/A   Overcast
8:35 PM 15.8 °F 4.2 °F 8.6 °F 73% 30.18 in 10.0 mi North 9.2 mph - N/A   Overcast
8:55 PM 15.8 °F 4.2 °F 6.8 °F 68% 30.18 in 10.0 mi North 9.2 mph - N/A   Overcast
9:15 PM 15.8 °F 4.2 °F 6.8 °F 68% 30.18 in 10.0 mi North 9.2 mph - N/A   Overcast
9:35 PM 15.8 °F 6.1 °F 6.8 °F 68% 30.18 in 10.0 mi North 6.9 mph - N/A   Overcast
9:55 PM 15.8 °F 2.1 °F 6.8 °F 68% 30.18 in 10.0 mi North 12.7 mph - N/A   Overcast
10:15 PM 14.0 °F 0.5 °F 6.8 °F 73% 30.19 in 10.0 mi North 11.5 mph - N/A   Overcast
10:35 PM 14.0 °F 0.5 °F 6.8 °F 73% 30.19 in 10.0 mi North 11.5 mph - N/A   Overcast
10:55 PM 14.0 °F 0.5 °F 6.8 °F 73% 30.20 in 10.0 mi North 11.5 mph - N/A   Overcast
11:15 PM 12.2 °F -0.2 °F 5.0 °F 73% 30.21 in 10.0 mi North 9.2 mph - N/A   Overcast
11:35 PM 12.2 °F -2.5 °F 3.2 °F 67% 30.21 in 10.0 mi North 12.7 mph - N/A   Overcast
11:55 PM 12.2 °F -1.8 °F 3.2 °F 67% 30.20 in 10.0 mi North 11.5 mph - N/A   Overcast